74P/Smirnova-Chernykh (2018)

Japanese version
Home page
Updated on January 17, 2017

---------------------------------------------------------------------

* Profile

* Pictures

* Orbital Elements

Epoch 2018 Feb. 11.0 TT = JDT 2458160.5
T 2018 Jan. 26.70076 TT                                 Nakano
q   3.5364615            (2000.0)            P               Q
n   0.11627522     Peri.   87.13520     -0.95561814     -0.27210551
a   4.1572991      Node    77.05567     +0.20253681     -0.88515072
e   0.1493368      Incl.    6.65391     +0.21394580     -0.37744774
P   8.48
From 2632 observations 1975 Mar. 4-2013 Oct. 6, mean residual 0".7.
     Nongravitational parameters Y1 = +0.03, Y2 = -0.0107.

* Finding Charts

* Magnitudes Graph

        m1 = 2.0 + 5 log d + 20.0 log r

---------------------------------------------------------------------

The orbital elements are published on M.P.E.C. 2015-M77.
The charts are made with StellaNavigator Ver.8 (AstroArts).
The magnitudes graphs are made with Comet for Windows.

---------------------------------------------------------------------

Copyright(C) Seiichi Yoshida (comet@aerith.net). All rights reserved.